PRIVATE WETTERSTATION BILLIGHEIM-ALLFELD                       ZURCK
Wetterdaten: Mittwoch, 16.04.2014
Datum Zeit Temp. A. Temp. A. min Temp. A. max Feuchte A. Luftdruck Regen Wind Richtung Richtung Sonnenschein ET Solar Taupunkt Windchill Windben Empfang
16.04.2014 00:00 3,9 C 3,9 C 4,2 C 80 % 1026,4 hPa 0,0 l/m 0,0 km/h (0 Bft) N 0 0 min 0,000 mm 0 W/m 0,8 C 3,9 C 0,0 km/h (0 Bft) 100 %
16.04.2014 00:10 3,6 C 3,6 C 3,9 C 81 % 1026,4 hPa 0,0 l/m 0,0 km/h (0 Bft) N 0 0 min 0,000 mm 0 W/m 0,7 C 3,6 C 0,0 km/h (0 Bft) 100 %
16.04.2014 00:20 3,2 C 3,2 C 3,6 C 81 % 1026,4 hPa 0,0 l/m 0,0 km/h (0 Bft) N 0 0 min 0,000 mm 0 W/m 0,3 C 3,2 C 0,0 km/h (0 Bft) 100 %
16.04.2014 00:30 2,8 C 2,8 C 3,2 C 82 % 1026,3 hPa 0,0 l/m 0,0 km/h (0 Bft) N 0 0 min 0,000 mm 0 W/m 0,0 C 2,8 C 0,0 km/h (0 Bft) 100 %
16.04.2014 00:40 2,6 C 2,6 C 2,8 C 82 % 1026,3 hPa 0,0 l/m 0,0 km/h (0 Bft) N 0 0 min 0,000 mm 0 W/m -0,2 C 2,6 C 0,0 km/h (0 Bft) 100 %
16.04.2014 00:50 2,3 C 2,3 C 2,6 C 83 % 1026,5 hPa 0,0 l/m 0,0 km/h (0 Bft) N 0 0 min 0,000 mm 0 W/m -0,3 C 2,3 C 0,0 km/h (0 Bft) 100 %
16.04.2014 01:00 2,1 C 2,1 C 2,3 C 83 % 1026,7 hPa 0,0 l/m 0,0 km/h (0 Bft) N 0 0 min 0,000 mm 0 W/m -0,5 C 2,1 C 0,0 km/h (0 Bft) 100 %
16.04.2014 01:10 1,9 C 1,9 C 2,1 C 83 % 1026,7 hPa 0,0 l/m 0,0 km/h (0 Bft) N 0 0 min 0,000 mm 0 W/m -0,7 C 1,9 C 0,0 km/h (0 Bft) 100 %
16.04.2014 01:20 1,8 C 1,8 C 1,9 C 83 % 1026,8 hPa 0,0 l/m 0,0 km/h (0 Bft) N 0 0 min 0,000 mm 0 W/m -0,8 C 1,8 C 0,0 km/h (0 Bft) 100 %
16.04.2014 01:30 1,6 C 1,6 C 1,8 C 84 % 1026,8 hPa 0,0 l/m 0,0 km/h (0 Bft) N 0 0 min 0,000 mm 0 W/m -0,8 C 1,6 C 0,0 km/h (0 Bft) 100 %
16.04.2014 01:40 1,4 C 1,4 C 1,6 C 85 % 1026,9 hPa 0,0 l/m 0,0 km/h (0 Bft) N 0 0 min 0,000 mm 0 W/m -0,8 C 1,4 C 0,0 km/h (0 Bft) 100 %
16.04.2014 01:50 1,2 C 1,2 C 1,4 C 85 % 1027,0 hPa 0,0 l/m 0,0 km/h (0 Bft) N 0 0 min 0,000 mm 0 W/m -1,0 C 1,2 C 0,0 km/h (0 Bft) 100 %
16.04.2014 02:00 1,1 C 1,1 C 1,2 C 85 % 1027,1 hPa 0,0 l/m 0,0 km/h (0 Bft) N 0 0 min 0,000 mm 0 W/m -1,1 C 1,1 C 0,0 km/h (0 Bft) 100 %
16.04.2014 02:10 0,9 C 0,8 C 1,1 C 86 % 1027,0 hPa 0,0 l/m 0,0 km/h (0 Bft) N 0 0 min 0,000 mm 0 W/m -1,2 C 0,9 C 0,0 km/h (0 Bft) 100 %
16.04.2014 02:20 0,7 C 0,7 C 0,8 C 86 % 1027,0 hPa 0,0 l/m 0,0 km/h (0 Bft) N 0 0 min 0,000 mm 0 W/m -1,4 C 0,7 C 0,0 km/h (0 Bft) 100 %
16.04.2014 02:30 0,6 C 0,6 C 0,7 C 86 % 1027,1 hPa 0,0 l/m 0,0 km/h (0 Bft) N 0 0 min 0,000 mm 0 W/m -1,5 C 0,6 C 0,0 km/h (0 Bft) 100 %
16.04.2014 02:40 0,6 C 0,6 C 0,6 C 86 % 1027,1 hPa 0,0 l/m 0,0 km/h (0 Bft) N 0 0 min 0,000 mm 0 W/m -1,5 C 0,6 C 0,0 km/h (0 Bft) 92 %
16.04.2014 02:50 0,6 C 0,6 C 0,6 C 86 % 1027,1 hPa 0,0 l/m 0,0 km/h (0 Bft) N 0 0 min 0,000 mm 0 W/m -1,5 C 0,6 C 0,0 km/h (0 Bft) 100 %
16.04.2014 03:00 0,6 C 0,6 C 0,6 C 86 % 1027,1 hPa 0,0 l/m 0,0 km/h (0 Bft) N 0 0 min 0,000 mm 0 W/m -1,5 C 0,6 C 0,0 km/h (0 Bft) 100 %
16.04.2014 03:10 0,4 C 0,4 C 0,6 C 86 % 1027,1 hPa 0,0 l/m 0,0 km/h (0 Bft) N 0 0 min 0,000 mm 0 W/m -1,7 C 0,4 C 0,0 km/h (0 Bft) 100 %
16.04.2014 03:20 0,4 C 0,4 C 0,5 C 86 % 1027,0 hPa 0,0 l/m 0,0 km/h (0 Bft) N 0 0 min 0,000 mm 0 W/m -1,7 C 0,4 C 0,0 km/h (0 Bft) 100 %
16.04.2014 03:30 0,4 C 0,4 C 0,4 C 86 % 1027,1 hPa 0,0 l/m 0,0 km/h (0 Bft) N 0 0 min 0,000 mm 0 W/m -1,7 C 0,4 C 0,0 km/h (0 Bft) 100 %
16.04.2014 03:40 0,5 C 0,4 C 0,6 C 87 % 1027,2 hPa 0,0 l/m 0,0 km/h (0 Bft) N 0 0 min 0,000 mm 0 W/m -1,4 C 0,5 C 0,0 km/h (0 Bft) 100 %
16.04.2014 03:50 0,7 C 0,6 C 0,7 C 86 % 1027,2 hPa 0,0 l/m 0,0 km/h (0 Bft) N 0 0 min 0,000 mm 0 W/m -1,4 C 0,7 C 0,0 km/h (0 Bft) 100 %
16.04.2014 04:00 0,8 C 0,7 C 0,8 C 87 % 1027,2 hPa 0,0 l/m 0,0 km/h (0 Bft) N 0 0 min 0,000 mm 0 W/m -1,1 C 0,8 C 0,0 km/h (0 Bft) 90 %
16.04.2014 04:10 0,8 C 0,8 C 0,8 C 87 % 1027,3 hPa 0,0 l/m 0,0 km/h (0 Bft) N 0 0 min 0,000 mm 0 W/m -1,1 C 0,8 C 0,0 km/h (0 Bft) 100 %
16.04.2014 04:20 0,8 C 0,8 C 0,9 C 86 % 1027,3 hPa 0,0 l/m 0,0 km/h (0 Bft) N 0 0 min 0,000 mm 0 W/m -1,3 C 0,8 C 0,0 km/h (0 Bft) 100 %
16.04.2014 04:30 0,7 C 0,7 C 0,8 C 86 % 1027,3 hPa 0,0 l/m 0,0 km/h (0 Bft) N 0 0 min 0,000 mm 0 W/m -1,4 C 0,7 C 0,0 km/h (0 Bft) 100 %
16.04.2014 04:40 0,6 C 0,6 C 0,7 C 86 % 1027,4 hPa 0,0 l/m 0,0 km/h (0 Bft) N 0 0 min 0,000 mm 0 W/m -1,5 C 0,6 C 0,0 km/h (0 Bft) 100 %
16.04.2014 04:50 0,4 C 0,4 C 0,6 C 86 % 1027,4 hPa 0,0 l/m 0,0 km/h (0 Bft) N 0 0 min 0,000 mm 0 W/m -1,7 C 0,4 C 0,0 km/h (0 Bft) 100 %
16.04.2014 05:00 0,3 C 0,3 C 0,4 C 86 % 1027,5 hPa 0,0 l/m 0,0 km/h (0 Bft) N 0 0 min 0,000 mm 0 W/m -1,8 C 0,3 C 0,0 km/h (0 Bft) 100 %
16.04.2014 05:10 0,3 C 0,2 C 0,3 C 87 % 1027,5 hPa 0,0 l/m 0,0 km/h (0 Bft) N 0 0 min 0,000 mm 0 W/m -1,6 C 0,3 C 0,0 km/h (0 Bft) 100 %
16.04.2014 05:20 0,2 C 0,1 C 0,3 C 87 % 1027,6 hPa 0,0 l/m 0,0 km/h (0 Bft) N 0 0 min 0,000 mm 0 W/m -1,7 C 0,2 C 0,0 km/h (0 Bft) 92 %
16.04.2014 05:30 0,1 C 0,0 C 0,1 C 87 % 1027,6 hPa 0,0 l/m 0,0 km/h (0 Bft) N 0 0 min 0,000 mm 0 W/m -1,8 C 0,1 C 0,0 km/h (0 Bft) 98 %
16.04.2014 05:40 -0,1 C -0,1 C 0,1 C 87 % 1027,6 hPa 0,0 l/m 0,0 km/h (0 Bft) N 0 0 min 0,000 mm 0 W/m -2,0 C -0,1 C 0,0 km/h (0 Bft) 100 %
16.04.2014 05:50 -0,2 C -0,2 C -0,1 C 87 % 1027,7 hPa 0,0 l/m 0,0 km/h (0 Bft) N 0 0 min 0,000 mm 0 W/m -2,1 C -0,2 C 0,0 km/h (0 Bft) 100 %
16.04.2014 06:00 -0,4 C -0,4 C -0,2 C 87 % 1027,8 hPa 0,0 l/m 0,0 km/h (0 Bft) N 0 0 min 0,000 mm 0 W/m -2,3 C -0,4 C 0,0 km/h (0 Bft) 100 %
16.04.2014 06:10 -0,5 C -0,5 C -0,4 C 87 % 1027,8 hPa 0,0 l/m 0,0 km/h (0 Bft) N 0 0 min 0,000 mm 0 W/m -2,4 C -0,5 C 0,0 km/h (0 Bft) 100 %
16.04.2014 06:20 -0,7 C -0,7 C -0,5 C 87 % 1027,8 hPa 0,0 l/m 0,0 km/h (0 Bft) N 0 0 min 0,000 mm 0 W/m -2,6 C -0,7 C 0,0 km/h (0 Bft) 100 %
16.04.2014 06:30 -0,7 C -0,7 C -0,7 C 87 % 1028,0 hPa 0,0 l/m 0,0 km/h (0 Bft) N 0 0 min 0,000 mm 0 W/m -2,6 C -0,7 C 0,0 km/h (0 Bft) 100 %
16.04.2014 06:40 -0,8 C -0,8 C -0,7 C 87 % 1028,1 hPa 0,0 l/m 0,0 km/h (0 Bft) N 0 0 min 0,000 mm 7 W/m -2,7 C -0,8 C 0,0 km/h (0 Bft) 90 %
16.04.2014 06:50 -1,0 C -1,0 C -0,8 C 87 % 1028,1 hPa 0,0 l/m 0,0 km/h (0 Bft) N 0 0 min 0,000 mm 11 W/m -2,9 C -1,0 C 0,0 km/h (0 Bft) 100 %
16.04.2014 07:00 -1,1 C -1,1 C -1,0 C 87 % 1028,2 hPa 0,0 l/m 0,0 km/h (0 Bft) N 0 0 min 0,000 mm 14 W/m -3,0 C -1,1 C 0,0 km/h (0 Bft) 100 %
16.04.2014 07:10 -0,9 C -1,1 C -0,9 C 87 % 1028,4 hPa 0,0 l/m 0,0 km/h (0 Bft) N 0 0 min 0,000 mm 18 W/m -2,8 C -0,9 C 0,0 km/h (0 Bft) 100 %
16.04.2014 07:20 -0,7 C -0,9 C -0,7 C 87 % 1028,5 hPa 0,0 l/m 0,0 km/h (0 Bft) N 0 0 min 0,000 mm 23 W/m -2,6 C -0,7 C 0,0 km/h (0 Bft) 100 %
16.04.2014 07:50 -0,1 C -0,9 C -0,1 C 87 % 1028,9 hPa 0,0 l/m 0,0 km/h (0 Bft) NW 309 0 min 0,000 mm 37 W/m -2,0 C -0,1 C 0,0 km/h (0 Bft) 97 %
16.04.2014 08:00 0,1 C -0,1 C 0,1 C 87 % 1029,0 hPa 0,0 l/m 0,0 km/h (0 Bft) N 0 0 min 0,000 mm 49 W/m -1,8 C 0,1 C 0,0 km/h (0 Bft) 100 %
16.04.2014 08:10 0,3 C 0,1 C 0,3 C 87 % 1029,2 hPa 0,0 l/m 0,0 km/h (0 Bft) N 0 0 min 0,000 mm 84 W/m -1,6 C 0,3 C 0,0 km/h (0 Bft) 100 %
16.04.2014 08:20 0,8 C 0,3 C 0,8 C 87 % 1029,2 hPa 0,0 l/m 0,0 km/h (0 Bft) N 0 0 min 0,000 mm 127 W/m -1,1 C 0,8 C 0,0 km/h (0 Bft) 98 %
16.04.2014 08:30 1,3 C 0,8 C 1,3 C 87 % 1029,2 hPa 0,0 l/m 0,0 km/h (0 Bft) N 0 10 min 0,000 mm 264 W/m -0,6 C 1,3 C 0,0 km/h (0 Bft) 99 %
16.04.2014 08:40 2,0 C 1,3 C 2,0 C 87 % 1029,3 hPa 0,0 l/m 0,0 km/h (0 Bft) N 0 10 min 0,000 mm 269 W/m 0,1 C 2,0 C 0,0 km/h (0 Bft) 93 %
16.04.2014 08:50 2,9 C 2,0 C 2,9 C 87 % 1029,3 hPa 0,0 l/m 0,0 km/h (0 Bft) N 0 10 min 0,000 mm 297 W/m 1,0 C 2,9 C 0,0 km/h (0 Bft) 95 %
16.04.2014 09:00 3,8 C 2,9 C 3,8 C 85 % 1029,3 hPa 0,0 l/m 0,0 km/h (0 Bft) N 0 10 min 0,076 mm 338 W/m 1,5 C 3,8 C 0,0 km/h (0 Bft) 100 %
16.04.2014 09:10 4,9 C 3,9 C 4,9 C 83 % 1029,4 hPa 0,0 l/m 0,0 km/h (0 Bft) N 0 10 min 0,000 mm 366 W/m 2,3 C 4,9 C 0,0 km/h (0 Bft) 100 %
16.04.2014 09:20 5,6 C 4,9 C 5,6 C 79 % 1029,4 hPa 0,0 l/m 0,0 km/h (0 Bft) N 0 10 min 0,000 mm 406 W/m 2,3 C 5,6 C 0,0 km/h (0 Bft) 100 %
16.04.2014 09:30 6,1 C 5,6 C 6,1 C 78 % 1029,4 hPa 0,0 l/m 0,0 km/h (0 Bft) N 0 10 min 0,000 mm 418 W/m 2,6 C 6,1 C 0,0 km/h (0 Bft) 100 %
16.04.2014 09:40 6,7 C 6,1 C 6,7 C 75 % 1029,4 hPa 0,0 l/m 0,0 km/h (0 Bft) N 0 10 min 0,000 mm 517 W/m 2,6 C 6,7 C 0,0 km/h (0 Bft) 100 %
16.04.2014 09:50 7,3 C 6,7 C 7,3 C 71 % 1029,5 hPa 0,0 l/m 1,6 km/h (1 Bft) SO 135 10 min 0,000 mm 561 W/m 2,4 C 7,3 C 11,3 km/h (2 Bft) 100 %
16.04.2014 10:00 6,8 C 6,8 C 7,3 C 71 % 1029,6 hPa 0,0 l/m 4,8 km/h (1 Bft) O-SO 112 10 min 0,152 mm 624 W/m 1,9 C 6,8 C 16,1 km/h (3 Bft) 100 %
16.04.2014 10:10 6,9 C 6,7 C 6,9 C 71 % 1029,7 hPa 0,0 l/m 1,6 km/h (1 Bft) O-SO 112 10 min 0,000 mm 622 W/m 2,0 C 6,9 C 16,1 km/h (3 Bft) 89 %
16.04.2014 10:20 6,8 C 6,8 C 6,8 C 72 % 1029,6 hPa 0,0 l/m 3,2 km/h (1 Bft) SO 135 10 min 0,000 mm 661 W/m 2,1 C 6,8 C 11,3 km/h (2 Bft) 100 %
16.04.2014 10:30 7,3 C 6,8 C 7,3 C 71 % 1029,5 hPa 0,0 l/m 0,0 km/h (0 Bft) O-SO 112 10 min 0,000 mm 642 W/m 2,4 C 7,3 C 8,0 km/h (2 Bft) 100 %
16.04.2014 10:40 7,9 C 7,3 C 7,9 C 70 % 1029,5 hPa 0,0 l/m 0,0 km/h (0 Bft) SO 135 10 min 0,000 mm 793 W/m 2,8 C 7,9 C 6,4 km/h (2 Bft) 100 %
16.04.2014 10:50 8,7 C 7,9 C 8,7 C 70 % 1029,4 hPa 0,0 l/m 1,6 km/h (1 Bft) O-SO 112 10 min 0,000 mm 810 W/m 3,5 C 8,7 C 9,7 km/h (2 Bft) 100 %
16.04.2014 11:00 9,4 C 8,7 C 9,4 C 64 % 1029,3 hPa 0,0 l/m 1,6 km/h (1 Bft) SO 135 10 min 0,229 mm 721 W/m 2,9 C 9,4 C 9,7 km/h (2 Bft) 100 %
16.04.2014 11:10 9,5 C 9,4 C 9,5 C 65 % 1029,3 hPa 0,0 l/m 0,0 km/h (0 Bft) SO 135 10 min 0,000 mm 749 W/m 3,3 C 9,5 C 8,0 km/h (2 Bft) 100 %
16.04.2014 11:20 10,2 C 9,5 C 10,2 C 60 % 1029,3 hPa 0,0 l/m 1,6 km/h (1 Bft) O-SO 112 10 min 0,000 mm 807 W/m 2,8 C 10,2 C 12,9 km/h (3 Bft) 100 %
16.04.2014 11:30 10,3 C 10,1 C 10,3 C 59 % 1029,3 hPa 0,0 l/m 3,2 km/h (1 Bft) O-SO 112 10 min 0,000 mm 863 W/m 2,6 C 10,3 C 25,7 km/h (4 Bft) 100 %
16.04.2014 11:40 10,2 C 10,2 C 10,3 C 59 % 1029,2 hPa 0,0 l/m 4,8 km/h (1 Bft) SO 135 10 min 0,000 mm 882 W/m 2,6 C 10,2 C 17,7 km/h (3 Bft) 100 %
16.04.2014 11:50 10,3 C 10,2 C 10,3 C 60 % 1029,3 hPa 0,0 l/m 0,0 km/h (0 Bft) S-SW 202 10 min 0,000 mm 923 W/m 2,9 C 10,3 C 3,2 km/h (1 Bft) 100 %
16.04.2014 12:00 10,4 C 10,3 C 10,4 C 59 % 1029,2 hPa 0,0 l/m 0,0 km/h (0 Bft) S 180 10 min 0,330 mm 928 W/m 2,7 C 10,4 C 4,8 km/h (1 Bft) 100 %
16.04.2014 12:10 10,5 C 10,4 C 10,6 C 60 % 1029,1 hPa 0,0 l/m 1,6 km/h (1 Bft) N 360 10 min 0,000 mm 928 W/m 3,1 C 10,5 C 8,0 km/h (2 Bft) 100 %
16.04.2014 12:20 11,1 C 10,6 C 11,1 C 57 % 1029,0 hPa 0,0 l/m 3,2 km/h (1 Bft) O-SO 112 10 min 0,000 mm 965 W/m 2,9 C 11,1 C 11,3 km/h (2 Bft) 100 %
16.04.2014 12:30 11,4 C 11,1 C 11,4 C 51 % 1029,1 hPa 0,0 l/m 1,6 km/h (1 Bft) O-NO 67 10 min 0,000 mm 1021 W/m 1,6 C 11,4 C 8,0 km/h (2 Bft) 100 %
16.04.2014 12:40 11,6 C 11,4 C 11,6 C 53 % 1029,1 hPa 0,0 l/m 3,2 km/h (1 Bft) O-SO 112 10 min 0,000 mm 1071 W/m 2,4 C 11,6 C 12,9 km/h (3 Bft) 100 %
16.04.2014 12:50 11,3 C 11,3 C 11,7 C 52 % 1029,0 hPa 0,0 l/m 1,6 km/h (1 Bft) SO 135 10 min 0,000 mm 1058 W/m 1,8 C 11,3 C 8,0 km/h (2 Bft) 100 %
16.04.2014 13:00 10,9 C 10,9 C 11,3 C 55 % 1029,0 hPa 0,0 l/m 3,2 km/h (1 Bft) NW 315 10 min 0,330 mm 1007 W/m 2,2 C 10,9 C 12,9 km/h (3 Bft) 100 %
16.04.2014 13:10 11,5 C 10,9 C 11,5 C 52 % 1029,0 hPa 0,0 l/m 1,6 km/h (1 Bft) NO 45 10 min 0,000 mm 1095 W/m 2,0 C 11,5 C 8,0 km/h (2 Bft) 100 %
16.04.2014 13:20 11,9 C 11,5 C 11,9 C 52 % 1029,1 hPa 0,0 l/m 1,6 km/h (1 Bft) NO 45 10 min 0,000 mm 1037 W/m 2,4 C 11,9 C 9,7 km/h (2 Bft) 100 %
16.04.2014 13:30 11,9 C 11,7 C 11,9 C 52 % 1029,1 hPa 0,0 l/m 1,6 km/h (1 Bft) NO 45 10 min 0,000 mm 425 W/m 2,4 C 11,9 C 8,0 km/h (2 Bft) 100 %
16.04.2014 13:40 11,7 C 11,7 C 11,9 C 51 % 1029,1 hPa 0,0 l/m 0,0 km/h (0 Bft) N-NO 22 10 min 0,000 mm 462 W/m 1,9 C 11,7 C 4,8 km/h (1 Bft) 100 %
16.04.2014 13:50 12,2 C 11,7 C 12,2 C 48 % 1029,0 hPa 0,0 l/m 1,6 km/h (1 Bft) N-NO 22 10 min 0,000 mm 1120 W/m 1,5 C 12,2 C 8,0 km/h (2 Bft) 100 %
16.04.2014 14:00 12,2 C 12,2 C 12,2 C 52 % 1029,0 hPa 0,0 l/m 1,6 km/h (1 Bft) NW 315 10 min 0,279 mm 446 W/m 2,6 C 12,2 C 9,7 km/h (2 Bft) 100 %
16.04.2014 14:10 11,7 C 11,7 C 12,2 C 49 % 1029,0 hPa 0,0 l/m 0,0 km/h (0 Bft) N-NO 22 10 min 0,000 mm 313 W/m 1,3 C 11,7 C 4,8 km/h (1 Bft) 100 %
16.04.2014 14:20 11,6 C 11,5 C 11,7 C 53 % 1029,0 hPa 0,0 l/m 1,6 km/h (1 Bft) N-NO 22 10 min 0,000 mm 334 W/m 2,4 C 11,6 C 8,0 km/h (2 Bft) 100 %
16.04.2014 14:30 11,3 C 11,3 C 11,6 C 52 % 1029,0 hPa 0,0 l/m 0,0 km/h (0 Bft) SO 135 10 min 0,000 mm 362 W/m 1,8 C 11,3 C 8,0 km/h (2 Bft) 100 %
16.04.2014 14:40 11,5 C 11,3 C 11,5 C 48 % 1028,9 hPa 0,0 l/m 0,0 km/h (0 Bft) O-SO 112 10 min 0,000 mm 503 W/m 0,9 C 11,5 C 9,7 km/h (2 Bft) 100 %
16.04.2014 14:50 11,5 C 11,5 C 11,6 C 50 % 1028,8 hPa 0,0 l/m 1,6 km/h (1 Bft) NO 45 10 min 0,000 mm 320 W/m 1,4 C 11,5 C 8,0 km/h (2 Bft) 100 %
16.04.2014 15:00 11,8 C 11,4 C 11,8 C 47 % 1028,8 hPa 0,0 l/m 1,6 km/h (1 Bft) NW 315 10 min 0,178 mm 914 W/m 0,9 C 11,8 C 16,1 km/h (3 Bft) 100 %
16.04.2014 15:10 11,7 C 11,7 C 11,9 C 47 % 1028,8 hPa 0,0 l/m 0,0 km/h (0 Bft) N-NO 22 10 min 0,000 mm 265 W/m 0,8 C 11,7 C 4,8 km/h (1 Bft) 100 %
16.04.2014 15:20 12,1 C 11,7 C 12,1 C 46 % 1028,6 hPa 0,0 l/m 1,6 km/h (1 Bft) O-NO 67 10 min 0,000 mm 874 W/m 0,8 C 12,1 C 8,0 km/h (2 Bft) 100 %
16.04.2014 15:30 12,2 C 12,1 C 12,2 C 48 % 1028,6 hPa 0,0 l/m 3,2 km/h (1 Bft) SO 135 10 min 0,000 mm 819 W/m 1,5 C 12,2 C 16,1 km/h (3 Bft) 100 %
16.04.2014 15:40 12,2 C 12,2 C 12,3 C 48 % 1028,5 hPa 0,0 l/m 1,6 km/h (1 Bft) O-SO 112 10 min 0,000 mm 810 W/m 1,5 C 12,2 C 11,3 km/h (2 Bft) 100 %
16.04.2014 15:50 12,4 C 12,1 C 12,4 C 47 % 1028,4 hPa 0,0 l/m 1,6 km/h (1 Bft) NW 315 10 min 0,000 mm 773 W/m 1,4 C 12,4 C 17,7 km/h (3 Bft) 100 %
16.04.2014 16:00 12,3 C 12,3 C 12,4 C 47 % 1028,3 hPa 0,0 l/m 1,6 km/h (1 Bft) NO 45 10 min 0,229 mm 680 W/m 1,3 C 12,3 C 14,5 km/h (3 Bft) 100 %
16.04.2014 16:10 12,8 C 12,3 C 12,8 C 45 % 1028,3 hPa 0,0 l/m 1,6 km/h (1 Bft) NO 45 10 min 0,000 mm 791 W/m 1,2 C 12,8 C 12,9 km/h (3 Bft) 98 %
16.04.2014 16:20 12,6 C 12,6 C 12,7 C 46 % 1028,1 hPa 0,0 l/m 1,6 km/h (1 Bft) N-NW 337 10 min 0,000 mm 696 W/m 1,3 C 12,6 C 14,5 km/h (3 Bft) 100 %
16.04.2014 16:30 12,1 C 12,1 C 12,6 C 48 % 1028,2 hPa 0,0 l/m 1,6 km/h (1 Bft) NO 45 10 min 0,000 mm 213 W/m 1,4 C 12,1 C 8,0 km/h (2 Bft) 100 %
16.04.2014 16:40 11,9 C 11,9 C 12,1 C 48 % 1028,2 hPa 0,0 l/m 0,0 km/h (0 Bft) N-NW 337 10 min 0,000 mm 274 W/m 1,2 C 11,9 C 4,8 km/h (1 Bft) 100 %
16.04.2014 16:50 11,7 C 11,7 C 11,9 C 47 % 1028,2 hPa 0,0 l/m 0,0 km/h (0 Bft) O-NO 67 0 min 0,000 mm 144 W/m 0,8 C 11,7 C 9,7 km/h (2 Bft) 99 %
16.04.2014 17:00 11,7 C 11,5 C 11,7 C 51 % 1028,1 hPa 0,0 l/m 1,6 km/h (1 Bft) NO 45 10 min 0,127 mm 200 W/m 1,9 C 11,7 C 14,5 km/h (3 Bft) 98 %
16.04.2014 17:10 12,3 C 11,7 C 12,3 C 47 % 1028,0 hPa 0,0 l/m 3,2 km/h (1 Bft) NW 315 10 min 0,000 mm 504 W/m 1,3 C 12,3 C 17,7 km/h (3 Bft) 90 %
16.04.2014 17:20 12,8 C 12,3 C 12,8 C 46 % 1027,9 hPa 0,0 l/m 0,0 km/h (0 Bft) N-NW 337 10 min 0,000 mm 508 W/m 1,5 C 12,8 C 4,8 km/h (1 Bft) 100 %
16.04.2014 17:30 13,1 C 12,8 C 13,1 C 45 % 1027,9 hPa 0,0 l/m 0,0 km/h (0 Bft) N-NO 22 10 min 0,000 mm 295 W/m 1,4 C 13,1 C 8,0 km/h (2 Bft) 100 %
16.04.2014 17:40 12,6 C 12,6 C 13,1 C 46 % 1028,0 hPa 0,0 l/m 1,6 km/h (1 Bft) O-SO 112 10 min 0,000 mm 158 W/m 1,3 C 12,6 C 6,4 km/h (2 Bft) 100 %
16.04.2014 17:50 12,1 C 12,1 C 12,6 C 49 % 1027,8 hPa 0,0 l/m 1,6 km/h (1 Bft) O-NO 67 0 min 0,000 mm 62 W/m 1,7 C 12,1 C 8,0 km/h (2 Bft) 100 %
16.04.2014 18:00 12,2 C 12,1 C 12,2 C 48 % 1027,6 hPa 0,0 l/m 0,0 km/h (0 Bft) NO 45 0 min 0,127 mm 65 W/m 1,5 C 12,2 C 6,4 km/h (2 Bft) 100 %
16.04.2014 18:10 12,2 C 12,2 C 12,2 C 47 % 1027,6 hPa 0,0 l/m 0,0 km/h (0 Bft) NW 315 0 min 0,000 mm 65 W/m 1,2 C 12,2 C 8,0 km/h (2 Bft) 100 %
16.04.2014 18:20 12,1 C 12,1 C 12,2 C 47 % 1027,5 hPa 0,0 l/m 0,0 km/h (0 Bft) N-NO 22 0 min 0,000 mm 69 W/m 1,1 C 12,1 C 8,0 km/h (2 Bft) 100 %
16.04.2014 18:30 12,1 C 12,1 C 12,1 C 47 % 1027,6 hPa 0,0 l/m 0,0 km/h (0 Bft) NO 45 0 min 0,000 mm 123 W/m 1,1 C 12,1 C 6,4 km/h (2 Bft) 100 %
16.04.2014 18:40 12,1 C 12,0 C 12,1 C 47 % 1027,5 hPa 0,0 l/m 0,0 km/h (0 Bft) N-NO 22 0 min 0,000 mm 123 W/m 1,1 C 12,1 C 6,4 km/h (2 Bft) 100 %
16.04.2014 18:50 12,1 C 12,0 C 12,1 C 48 % 1027,5 hPa 0,0 l/m 1,6 km/h (1 Bft) O-NO 67 0 min 0,000 mm 95 W/m 1,4 C 12,1 C 12,9 km/h (3 Bft) 100 %
16.04.2014 19:00 11,6 C 11,6 C 12,1 C 49 % 1027,6 hPa 0,0 l/m 0,5 km/h (0 Bft) N 10 0 min 0,051 mm 25 W/m 1,3 C 11,6 C 6,4 km/h (2 Bft) 96 %
16.04.2014 19:10 11,1 C 11,1 C 11,6 C 51 % 1027,5 hPa 0,0 l/m 0,2 km/h (0 Bft) O-NO 74 0 min 0,000 mm 25 W/m 1,4 C 11,1 C 3,2 km/h (1 Bft) 98 %
16.04.2014 19:20 10,6 C 10,6 C 11,1 C 50 % 1027,5 hPa 0,0 l/m 0,3 km/h (0 Bft) O 82 0 min 0,000 mm 32 W/m 0,6 C 10,6 C 3,2 km/h (1 Bft) 97 %
16.04.2014 19:30 10,3 C 10,3 C 10,6 C 51 % 1027,6 hPa 0,0 l/m 0,0 km/h (0 Bft) O-NO 67 0 min 0,000 mm 30 W/m 0,6 C 10,3 C 1,6 km/h (1 Bft) 97 %
16.04.2014 19:40 10,1 C 10,1 C 10,3 C 53 % 1027,6 hPa 0,0 l/m 0,0 km/h (0 Bft) O-NO 66 0 min 0,000 mm 19 W/m 1,0 C 10,1 C 1,6 km/h (1 Bft) 98 %
16.04.2014 19:50 9,9 C 9,9 C 10,1 C 53 % 1027,6 hPa 0,0 l/m 0,0 km/h (0 Bft) NO 42 0 min 0,000 mm 16 W/m 0,8 C 9,9 C 0,0 km/h (0 Bft) 97 %
16.04.2014 20:00 9,6 C 9,6 C 9,9 C 56 % 1027,7 hPa 0,0 l/m 0,0 km/h (0 Bft) NO 42 0 min 0,026 mm 12 W/m 1,3 C 9,6 C 1,6 km/h (1 Bft) 97 %
16.04.2014 20:10 9,2 C 9,2 C 9,6 C 56 % 1027,6 hPa 0,0 l/m 0,0 km/h (0 Bft) NO 42 0 min 0,000 mm 5 W/m 0,9 C 9,2 C 1,6 km/h (1 Bft) 97 %
16.04.2014 20:20 8,8 C 8,8 C 9,2 C 55 % 1027,6 hPa 0,0 l/m 0,1 km/h (0 Bft) O-NO 71 0 min 0,000 mm 0 W/m 0,3 C 8,8 C 3,2 km/h (1 Bft) 97 %
16.04.2014 20:30 8,6 C 8,6 C 8,8 C 55 % 1027,6 hPa 0,0 l/m 0,0 km/h (0 Bft) O-NO 71 0 min 0,000 mm 0 W/m 0,1 C 8,6 C 0,0 km/h (0 Bft) 98 %
16.04.2014 20:40 8,2 C 8,2 C 8,6 C 55 % 1027,7 hPa 0,0 l/m 0,1 km/h (0 Bft) O-NO 71 0 min 0,000 mm 0 W/m -0,3 C 8,2 C 1,6 km/h (1 Bft) 97 %
16.04.2014 20:50 7,9 C 7,9 C 8,2 C 56 % 1027,9 hPa 0,0 l/m 0,2 km/h (0 Bft) O-NO 75 0 min 0,000 mm 0 W/m -0,3 C 7,9 C 3,2 km/h (1 Bft) 98 %
16.04.2014 21:00 7,7 C 7,7 C 7,9 C 58 % 1027,9 hPa 0,0 l/m 0,5 km/h (0 Bft) O 88 0 min 0,000 mm 0 W/m -0,0 C 7,7 C 6,4 km/h (2 Bft) 100 %
16.04.2014 21:10 7,5 C 7,5 C 7,7 C 57 % 1027,9 hPa 0,0 l/m 0,0 km/h (0 Bft) N-NO 22 0 min 0,000 mm 0 W/m -0,5 C 7,5 C 3,2 km/h (1 Bft) 100 %
16.04.2014 21:20 7,3 C 7,3 C 7,7 C 57 % 1028,0 hPa 0,0 l/m 0,5 km/h (0 Bft) N 9 0 min 0,000 mm 0 W/m -0,6 C 7,3 C 4,8 km/h (1 Bft) 99 %
16.04.2014 21:30 7,2 C 7,2 C 7,3 C 58 % 1028,0 hPa 0,0 l/m 0,3 km/h (0 Bft) NO 53 0 min 0,000 mm 0 W/m -0,5 C 7,2 C 4,8 km/h (1 Bft) 90 %
16.04.2014 21:40 7,1 C 7,1 C 7,2 C 58 % 1028,0 hPa 0,0 l/m 0,2 km/h (0 Bft) N 360 0 min 0,000 mm 0 W/m -0,6 C 7,1 C 6,4 km/h (2 Bft) 100 %
16.04.2014 21:50 7,0 C 7,0 C 7,1 C 59 % 1027,9 hPa 0,0 l/m 0,6 km/h (0 Bft) O 90 0 min 0,000 mm 0 W/m -0,5 C 7,0 C 6,4 km/h (2 Bft) 100 %
16.04.2014 22:00 6,9 C 6,9 C 7,0 C 59 % 1028,0 hPa 0,0 l/m 0,3 km/h (0 Bft) NO 36 0 min 0,025 mm 0 W/m -0,5 C 6,9 C 6,4 km/h (2 Bft) 100 %
16.04.2014 22:10 6,9 C 6,9 C 7,0 C 59 % 1027,9 hPa 0,0 l/m 0,7 km/h (0 Bft) O-NO 67 0 min 0,000 mm 0 W/m -0,5 C 6,9 C 6,4 km/h (2 Bft) 100 %
16.04.2014 22:20 6,7 C 6,7 C 6,9 C 60 % 1027,8 hPa 0,0 l/m 0,2 km/h (0 Bft) NO 54 0 min 0,000 mm 0 W/m -0,5 C 6,7 C 8,0 km/h (2 Bft) 100 %
16.04.2014 22:30 6,7 C 6,6 C 6,7 C 60 % 1027,9 hPa 0,0 l/m 0,8 km/h (0 Bft) NO 53 0 min 0,000 mm 0 W/m -0,5 C 6,7 C 8,0 km/h (2 Bft) 100 %
16.04.2014 22:40 6,6 C 6,6 C 6,7 C 60 % 1027,9 hPa 0,0 l/m 0,6 km/h (0 Bft) S-SW 202 0 min 0,000 mm 0 W/m -0,6 C 6,6 C 6,4 km/h (2 Bft) 99 %
16.04.2014 22:50 6,4 C 6,4 C 6,6 C 60 % 1027,8 hPa 0,0 l/m 0,6 km/h (0 Bft) N-NO 30 0 min 0,000 mm 0 W/m -0,8 C 6,4 C 8,0 km/h (2 Bft) 100 %
16.04.2014 23:00 6,4 C 6,3 C 6,4 C 60 % 1027,9 hPa 0,0 l/m 0,7 km/h (0 Bft) O-NO 74 0 min 0,025 mm 0 W/m -0,8 C 6,4 C 6,4 km/h (2 Bft) 100 %
16.04.2014 23:10 6,3 C 6,3 C 6,4 C 60 % 1027,9 hPa 0,0 l/m 0,2 km/h (0 Bft) S-SO 157 0 min 0,000 mm 0 W/m -0,9 C 6,3 C 8,0 km/h (2 Bft) 100 %
16.04.2014 23:20 6,1 C 6,1 C 6,3 C 61 % 1027,9 hPa 0,0 l/m 0,3 km/h (0 Bft) O 101 0 min 0,000 mm 0 W/m -0,8 C 6,1 C 4,8 km/h (1 Bft) 100 %
16.04.2014 23:30 5,9 C 5,9 C 6,1 C 61 % 1027,9 hPa 0,0 l/m 1,0 km/h (0 Bft) SO 142 0 min 0,000 mm 0 W/m -1,0 C 5,9 C 6,4 km/h (2 Bft) 100 %
16.04.2014 23:40 5,8 C 5,8 C 5,9 C 60 % 1027,8 hPa 0,0 l/m 1,6 km/h (1 Bft) O-NO 62 0 min 0,000 mm 0 W/m -1,4 C 5,8 C 9,7 km/h (2 Bft) 100 %
16.04.2014 23:50 5,8 C 5,8 C 5,9 C 60 % 1027,8 hPa 0,0 l/m 0,6 km/h (0 Bft) NO 36 0 min 0,000 mm 0 W/m -1,4 C 5,8 C 6,4 km/h (2 Bft) 100 %
_ Min-Zeit 07:00 07:00 07:00 16:10 00:30 - 00:00 - - - - - 07:00 07:00 00:00 10:10
Minimum _ -1,1 C -1,1 C -1,0 C 45 % 1026,3 hPa - 0,0 km/h (0 Bft) - - - - - -3,0 C -1,1 C 0,0 km/h (0 Bft) 89 %
_ Max-Zeit 17:30 17:30 17:30 03:40 10:10 00:00 10:00 - - 08:30 12:00 13:50 10:50 17:30 11:30 00:00
Maximum _ 13,1 C 12,8 C 13,1 C 87 % 1029,7 hPa 0,0 l/m 4,8 km/h
O-SO (1 Bft)
- - 10 min 0,330 mm 1120 W/m 3,5 C 13,1 C 25,7 km/h
NO (4 Bft)
100 %
Durchschnitt _ 6,4 C 6,3 C 6,6 C 67 % 1028,1 hPa #0,0 l/m 0,6 km/h (0 Bft) O-SO - #9:10 h #2,184 mm 450 W/m 0,3 C 6,4 C 4,9 km/h (1 Bft) 99 %
PRIVATE WETTERSTATION BILLIGHEIM-ALLFELD - www.neckar-odenwald-wetter.de - Holger Sonntag